Regional Weather Roundup
Issued by NWS Sterling, VA

Home | Current Version | Previous Version | Text Only | Print | Product List | Glossary Off
Versions: 1 2 3 4 5 6 7 8 9 10 11 12 13 14 15 16 17 18 19 20 21 22 23 24 25 26 27 28 29 30 31 32 33 34 35 36 37 38 39 40 41 42 43 44 45 46 47 48 49 50

000
ASUS41 KLWX 240710
RWRLWX

REGIONAL WEATHER ROUNDUP
NATIONAL WEATHER SERVICE BALTIMORE MD/WASHINGTON DC
300 AM EDT THU JUL 24 2014

Note: "FAIR" indicates few or no clouds below 12,000 feet
with no significant weather and/or obstructions to visibility.
 TC=TEMPERATURE CELSIUS

 * =Non NWS site. Station does not report precipitation (e.g. rain,
    snow, etc.), thunder, or fog.

DCZ001-MDZ009-015-VAZ040>042-051-053>054-240800-
WASHINGTON METRO
  /KDAA//-FT BELVOIR

CITY           SKY/WX    TMP DP  RH WIND       PRES   REMARKS
WASHINGTON NAT CLOUDY    78  69  73 N5        29.86F
DULLES         CLOUDY    76  68  76 NW9       29.87S
ANDREWS AFB    CLOUDY    78  70  77 NW9       29.86S
QUANTICO       CLOUDY    76  71  85 NW5       29.86S
COLLEGE PARK*  CLOUDY    77  72  83 CALM      29.85S
LEESBURG*      LGT RAIN  75  72  88 N7        29.90R
MANASSAS*      CLOUDY    73  73 100 CALM      29.88R
GAITHERSBURG*  CLOUDY    72  70  94 NW3       29.91S

$$

MDZ006>007-011-014-240800-
BALTIMORE METRO

CITY           SKY/WX    TMP DP  RH WIND       PRES   REMARKS
BWI AIRPORT    CLOUDY    74  71  91 CALM      29.84F
MD SCIENCE CTR   N/A     76  69  79 MISG      29.85S
MARTIN STATE   MOCLDY    72  72 100 W6        29.86S
ANNAPOLIS      CLOUDY    76  72  87 CALM      29.83F
FORT MEADE*    CLOUDY    70  68  94 CALM      29.88S

$$

MDZ012-015-019>023-240800-
MARYLAND EASTERN SHORE

CITY           SKY/WX    TMP DP  RH WIND       PRES   REMARKS
OCEAN CITY     CLOUDY    73  70  90 E5        29.82F
SALISBURY      NOT AVBL
BAY BRIDGE AP*   N/A     77  72  83 NW5       29.84S
CAMBRIDGE*     CLOUDY    73  70  88 CALM      29.83S
EASTON*        CLOUDY    74  74 100 CALM      29.87S

$$

MDZ017>025-240800-
SOUTHERN MARYLAND

CITY           SKY/WX    TMP DP  RH WIND       PRES   REMARKS
PATUXENT RIVER MOCLDY    74  72  93 CALM      29.83S
ST INIGOES     MOCLDY    76  71  85 W5        29.83F
LEONARDTOWN*   MOCLDY    72  70  94 CALM      29.86S

$$

MDZ003>005-240800-
NORTH CENTRAL MARYLAND

CITY           SKY/WX    TMP DP  RH WIND       PRES   REMARKS
FREDERICK*     LGT RAIN  72  72 100 CALM      29.91S
HAGERSTOWN APT LGT RAIN  71  68  90 NW6       29.90S
WESTMINSTER*   CLOUDY    72  70  94 CALM      29.89S

$$

MDZ501>502-240800-
WESTERN MARYLAND

CITY           SKY/WX    TMP DP  RH WIND       PRES   REMARKS
OAKLAND*       FOG       59 N/A N/A NW3       30.03F VSB 1/4
CUMBERLAND*    CLOUDY    72  61  68 NW8       29.98S

$$

VAZ025>031-240800-
SHENANDOAH VALLEY

CITY           SKY/WX    TMP DP  RH WIND       PRES   REMARKS
WINCHESTER*    RAIN      72  70  94 N3        29.91F
STAUNTON*      LGT RAIN  71  68  93 CALM      29.96F

$$

WVZ021-048>050-054>055-240800-
EASTERN WEST VIRGINIA PANHANDLE

CITY           SKY/WX    TMP DP  RH WIND       PRES   REMARKS
MARTINSBURG    LGT RAIN  74  65  73 NW10      29.92R
PETERSBURG*    CLOUDY    69  65  84 CALM      29.95S

$$

VAZ036>039-050-240800-
CENTRAL FOOTHILLS

CITY           SKY/WX    TMP DP  RH WIND       PRES   REMARKS
CHARLOTTESVILL LGT RAIN  73  69  87 VRB3      29.89F
ORANGE*        LGT RAIN  73  70  88 CALM      29.90S

$$

VAZ055>057-240800-
NORTH AND CENTRAL PIEDMONT

CITY           SKY/WX    TMP DP  RH WIND       PRES   REMARKS
FREDERICKSBRG* CLOUDY    76  71  83 NW5       29.85F
STAFFORD*      CLOUDY    73  73 100 CALM      29.90F

$$

NCZ024-NYZ072-PAZ021-071-VAZ022-071-240800-
OTHER REGIONAL OBSERVATIONS

CITY           SKY/WX    TMP DP  RH WIND       PRES   REMARKS
NEW YORK CITY  PTCLDY    74  67  78 VRB3      29.83S
PHILADELPHIA   CLOUDY    75  66  73 N10       29.83F
PITTSBURGH     PTCLDY    62  59  90 NW9       30.00S
ROANOKE        CLOUDY    73  63  68 N9        29.96F
RICHMOND       CLOUDY    80  68  66 CALM      29.85F
RALEIGH        MOCLDY    76  72  87 SW9       29.92S

$$

ANZ530>537-240800-
MARINE OBSERVATIONS

STATION/POSITION TIME  TEMP    WIND        PRES
                       AIR SEA DIR/SP/G
                 (UTC) (F)     (DEG/KT/KT) (MB)
THOMAS PT LIGHT  0600   77 80  330/  3/  3 1011.0F
BALT KEY BRIDGE  0600   79     330/  7/  9 1010.4F
COVE POINT       0600   76     290/  7/  8 1010.2F
LEWISETTA        0600   77 81  300/  4/  6 1010.0F
SOLOMONS ISLAND  0600      82                N/A
PINEY POINT      0600          270/  5/  6   N/A

$$



USA.gov is the U.S. government's official web portal to all federal, state and local government web resources and services.